Satellite-Ground Cal/Val Site Overpasses Predictions

Prediction of Satellite NPP Overpassing Cal/Val Site: Antarctic Dome C

Ground Cal/Val Site Location: Latitude: -75.10, Longitude: 123.35; Satellite-Ground Site NADIR distance within 100 km.

Table of predicted overpasses for the next 14.0 days since TLE Epoch: 4/13/2024
Interval Starting Time Ending Time Minimum Distance Time Minimum Distance (km)
1 04/13/2024 07:44:54 04/13/2024 07:45:13 04/13/2024 07:45:03 75.82
2 04/14/2024 07:26:01 04/14/2024 07:26:29 04/14/2024 07:26:15 31.82
3 04/16/2024 15:08:31 04/16/2024 15:08:34 04/16/2024 15:08:32 99.03
4 04/17/2024 14:49:28 04/17/2024 14:49:57 04/17/2024 14:49:42 12.38
5 04/19/2024 07:32:18 04/19/2024 07:32:48 04/19/2024 07:32:33 5.12
6 04/22/2024 14:55:46 04/22/2024 14:56:14 04/22/2024 14:56:00 24.39
7 04/23/2024 14:37:02 04/23/2024 14:37:18 04/23/2024 14:37:10 82.85
8 04/24/2024 07:38:36 04/24/2024 07:39:03 04/24/2024 07:38:49 41.20
